Regional Weather Roundup
Issued by NWS Midland/Odessa, TX

Skip options and go directly to product.
Home | Oldest Version | Previous Version | Current Version | All | Text Only | Save Text | Print | Product List | Glossary On

Skip product version selection by date and time.   
204
ASUS44 KMAF 211410
RWRMAF
MIDLAND AREA WEATHER ROUNDUP
NATIONAL WEATHER SERVICE MIDLAND TX
900 AM CDT MON APR 21 2014

...IN SOUTHWEST TEXAS AND SOUTHEAST NEW MEXICO...

CITY           SKY/WX    TMP DP  RH WIND       PRES   REMARKS
ALPINE         SUNNY     63  49  60 SW5       30.23S
ANDREWS        CLOUDY    59  58  98 W3        30.10S FOG
ARTESIA        SUNNY     64  45  48 NW7       30.13R
BIG SPRING     CLOUDY    66  61  84 W10       30.10R
CARLSBAD       SUNNY     67  42  40 NW9       30.10R
DRYDEN           N/A     71  64  78 N3        30.06S
FORT STOCKTON  SUNNY     66  54  65 SW14      30.10R
GUAD PASS      SUNNY     57  36  45 S8        30.22R
HOBBS          SUNNY     59  45  58 CALM      30.12R
MARFA          SUNNY     59  46  63 NW3       30.22R
MIDLAND AIRPK  MOSUNNY   66  61  85 W9        30.09R HAZE
MIDLAND INTL   SUNNY     65  61  87 SW13      30.08R
ODESSA         MOSUNNY   64  60  87 SW8       30.10R FOG
PECOS          SUNNY     57  46  65 CALM      30.09R
PRESIDIO       FAIR      70  43  38 N3        30.12R
SEMINOLE       SUNNY     61  53  75 W6        30.11S
SNYDER         PTSUNNY   65  60  86 SW16      30.06R FOG
WINK             N/A     59  59 100 CALM      30.08R
$$
...OTHER STATIONS IN TEXAS...

CITY           SKY/WX    TMP DP  RH WIND       PRES   REMARKS
ABILENE        MOSUNNY   70  61  73 W15       30.01R
AMARILLO       SUNNY     59  47  64 NW10      30.09R
AUSTIN         CLOUDY    68  64  87 S8        30.05S
BROWNSVILLE    PTSUNNY   73  69  87 SE10      30.05R
CORPUS CHRISTI PTSUNNY   73  67  81 SE12      30.05R
DALLAS FTW     CLOUDY    65  61  87 S14       30.00S
DEL RIO        CLOUDY    69  65  86 SE8       30.04R
EL PASO        MOSUNNY   61  41  47 CALM      30.13R
HOUSTON INT    MOSUNNY   70  64  81 S9        30.07F
LUBBOCK        SUNNY     59  48  67 NW14      30.06R
SAN ANGELO     CLOUDY    69  63  81 SW17G26   30.04S
SAN ANTONIO    CLOUDY    69  64  84 S12       30.06R
WACO           CLOUDY    66  62  87 S9        30.04S
WICHITA FALLS  NOT AVBL
$$
...OTHER LOCATIONS IN NEW MEXICO...

CITY           SKY/WX    TMP DP  RH WIND       PRES   REMARKS
ALAMAGORDO     SUNNY     57  37  47 CALM      30.16R
ALBUQUERQUE    SUNNY     55  37  50 N5        30.24R
CANNON AFB     SUNNY     60  45  56 N10       30.13R
CLOVIS         SUNNY     59  45  58 N13       30.16R
HOLLOMAN AFB   MOSUNNY   57  40  52 CALM      30.15R
ROSWELL        SUNNY     58  46  64 N7        30.13R
RUIDOSO        SUNNY     55  32  41 W7        30.29R
SANTA FE       SUNNY     51  38  60 N17       30.26R
TRUTH OR CONSE PTSUNNY   58  39  49 NW5       30.20R
TUCUMCARI      SUNNY     61  45  55 NW9       30.13R
$$

USA.gov is the U.S. government's official web portal to all federal, state and local government web resources and services.